Weather in Oktyabr

Russia / Stavropol Krai     45°00′42″N   42°48′18″E
temp.,
°C
wind,
m/s
gust,
m/s
humid.,
%
clouds,
%
prec.,
mm/h
press.,
hPa
HPBL,
m
14 may, fri
fri1400:00+15ese377097 0.0 1013128
03:00+13se34795 0.0 101366
06:00+14se23835 0.0 101392
09:00+21se45630 0.0 1013396
12:00+26se55522 0.0 1012605
15:00+27ese66490 0.0 1011749
18:00+24ese59650 0.0 1011304
21:00+19se36730 0.0 101186
15 may, sat
sat1500:00+16se33782 0.0 101141
03:00+15sse227971 0.0 101216
06:00+17sw238797 0.0 101376
09:00+23wnw34750 0.0 1013537
12:00+26nnw44640 0.0 10131097
15:00+28n44583 0.0 10121429
18:00+26ne24665 0.0 1012135
21:00+21w1172100 0.0 101211
16 may, sun
sun1600:00+19ene1178100 0.0 101111
03:00+17ese227099 0.0 101123
06:00+17ese2268100 0.0 101048
09:00+21ese235515 0.0 1010363
12:00+25e555223 0.0 1009792
15:00+27ese574457 0.0 10071005
18:00+24ese5125260 0.0 1006344
21:00+21ese71544100 0.0 1006420
17 may, mon
mon1700:00+17ese6135393 0.0 1005310
03:00+15ese375867 0.0 1005139
06:00+15ese276484 0.0 1005188
09:00+22se34511 0.0 1006425
12:00+26ese44495 0.0 1006826
15:00+28e344399 0.0 10051263
18:00+21wsw61180100 0.0 1007312
21:00+16wnw51082100 0.8 1011370
18 may, tue
tue1800:00+15wsw2387100 0.1 101181
03:00+15nw31082100 0.1 1011316
06:00+15wnw51288100 0.0 1013496
09:00+18wnw71082100 0.0 1013670
12:00+20wnw7870100 0.0 10141049
15:00+22nw6764100 0.1 10131258
18:00+20nw477526 0.1 1013468
21:00+16w4893100 0.1 1014191